TimeCST,TemperatureF,Dew PointF,Humidity,Sea Level PressureIn,VisibilityMPH,Wind Direction,Wind SpeedMPH,Gust SpeedMPH,PrecipitationIn,Events,Conditions,WindDirDegrees,DateUTC
12:15 AM,39.2,37.4,93,30.12,3.0,North,-9999.0,-,N/A,,Clear,0,2012-11-08 06:15:00
12:35 AM,39.2,37.4,93,30.13,3.0,North,-9999.0,-,N/A,,Clear,0,2012-11-08 06:35:00
12:55 AM,37.4,35.6,93,30.13,3.0,North,-9999.0,-,N/A,,Clear,0,2012-11-08 06:55:00
1:15 AM,37.4,35.6,93,30.13,3.0,North,-9999.0,-,N/A,,Clear,0,2012-11-08 07:15:00
1:55 AM,37.4,35.6,93,30.15,3.0,North,-9999.0,-,N/A,,Partly Cloudy,0,2012-11-08 07:55:00
2:15 AM,37.4,35.6,93,30.15,3.0,North,-9999.0,-,N/A,,Mostly Cloudy,0,2012-11-08 08:15:00
2:35 AM,37.4,35.6,93,30.16,3.0,North,-9999.0,-,N/A,,Mostly Cloudy,0,2012-11-08 08:35:00
2:55 AM,37.4,35.6,93,30.16,3.0,North,-9999.0,-,N/A,,Partly Cloudy,0,2012-11-08 08:55:00
3:15 AM,35.6,35.6,100,30.16,2.5,North,-9999.0,-,N/A,,Clear,0,2012-11-08 09:15:00
3:35 AM,35.6,33.8,93,30.17,2.5,North,-9999.0,-,N/A,,Clear,0,2012-11-08 09:35:00
3:55 AM,35.6,33.8,93,30.17,2.5,North,-9999.0,-,N/A,,Clear,0,2012-11-08 09:55:00
4:15 AM,35.6,33.8,93,30.17,2.5,North,-9999.0,-,N/A,,Clear,0,2012-11-08 10:15:00
4:35 AM,35.6,32.0,87,30.18,2.0,North,-9999.0,-,N/A,,Clear,0,2012-11-08 10:35:00
5:15 AM,33.8,32.0,93,30.19,2.0,North,-9999.0,-,N/A,,Clear,0,2012-11-08 11:15:00
5:55 AM,32.0,32.0,100,30.21,2.0,North,-9999.0,-,N/A,,Clear,0,2012-11-08 11:55:00
6:15 AM,32.0,32.0,100,30.21,1.2,North,-9999.0,-,N/A,,Clear,0,2012-11-08 12:15:00
6:35 AM,32.0,32.0,100,30.22,1.2,North,-9999.0,-,N/A,,Clear,0,2012-11-08 12:35:00
6:55 AM,33.8,32.0,93,30.22,1.8,North,-9999.0,-,N/A,,Clear,0,2012-11-08 12:55:00
7:15 AM,35.6,32.0,87,30.23,1.8,North,-9999.0,-,N/A,,Clear,0,2012-11-08 13:15:00
7:55 AM,41.0,37.4,87,30.25,1.5,North,-9999.0,-,N/A,,Clear,0,2012-11-08 13:55:00
8:15 AM,42.8,39.2,87,30.25,1.8,North,-9999.0,-,N/A,,Clear,0,2012-11-08 14:15:00
8:35 AM,44.6,39.2,81,30.25,2.0,North,-9999.0,-,N/A,,Haze,0,2012-11-08 14:35:00
8:55 AM,44.6,39.2,81,30.25,2.5,North,-9999.0,-,N/A,,Haze,0,2012-11-08 14:55:00
9:15 AM,46.4,39.2,76,30.25,2.5,North,-9999.0,-,N/A,,Haze,0,2012-11-08 15:15:00
9:55 AM,48.2,39.2,71,30.25,2.5,North,-9999.0,-,N/A,,Haze,0,2012-11-08 15:55:00
10:15 AM,50.0,39.2,66,30.24,2.5,North,-9999.0,-,N/A,,Haze,0,2012-11-08 16:15:00
10:35 AM,51.8,37.4,58,30.24,2.5,North,-9999.0,-,N/A,,Haze,0,2012-11-08 16:35:00
10:55 AM,53.6,37.4,54,30.23,3.0,North,-9999.0,-,N/A,,Haze,0,2012-11-08 16:55:00
11:15 AM,53.6,37.4,54,30.22,3.0,North,-9999.0,-,N/A,,Haze,0,2012-11-08 17:15:00
11:35 AM,55.4,37.4,51,30.21,3.0,North,-9999.0,-,N/A,,Haze,0,2012-11-08 17:35:00
11:55 AM,55.4,37.4,51,30.20,3.0,North,-9999.0,-,N/A,,Haze,0,2012-11-08 17:55:00
12:15 PM,55.4,37.4,51,30.20,3.0,North,-9999.0,-,N/A,,Haze,0,2012-11-08 18:15:00
12:35 PM,57.2,37.4,48,30.19,3.0,North,-9999.0,-,N/A,,Haze,0,2012-11-08 18:35:00
12:55 PM,59.0,37.4,45,30.19,3.0,North,-9999.0,-,N/A,,Haze,0,2012-11-08 18:55:00
1:15 PM,59.0,39.2,48,30.18,3.0,North,-9999.0,-,N/A,,Haze,0,2012-11-08 19:15:00
1:35 PM,59.0,37.4,45,30.17,4.0,North,-9999.0,-,N/A,,Haze,0,2012-11-08 19:35:00
1:55 PM,59.0,37.4,45,30.17,3.0,North,-9999.0,-,N/A,,Haze,0,2012-11-08 19:55:00
2:15 PM,59.0,39.2,48,30.17,3.0,North,-9999.0,-,N/A,,Haze,0,2012-11-08 20:15:00
2:35 PM,59.0,39.2,48,30.17,3.0,North,-9999.0,-,N/A,,Haze,0,2012-11-08 20:35:00
2:55 PM,59.0,39.2,48,30.17,3.0,North,-9999.0,-,N/A,,Haze,0,2012-11-08 20:55:00
3:15 PM,59.0,39.2,48,30.17,3.0,North,-9999.0,-,N/A,,Haze,0,2012-11-08 21:15:00
3:35 PM,59.0,39.2,48,30.18,3.0,North,-9999.0,-,N/A,,Haze,0,2012-11-08 21:35:00
3:55 PM,59.0,39.2,48,30.18,3.0,North,-9999.0,-,N/A,,Haze,0,2012-11-08 21:55:00
4:15 PM,57.2,39.2,51,30.18,3.0,North,-9999.0,-,N/A,,Haze,0,2012-11-08 22:15:00
4:35 PM,55.4,39.2,54,30.18,3.0,North,-9999.0,-,N/A,,Haze,0,2012-11-08 22:35:00
4:55 PM,55.4,39.2,54,30.18,2.5,North,-9999.0,-,N/A,,Haze,0,2012-11-08 22:55:00
5:15 PM,53.6,39.2,58,30.19,5.0,North,-9999.0,-,N/A,,Haze,0,2012-11-08 23:15:00
5:35 PM,50.0,41.0,71,30.20,4.0,North,-9999.0,-,N/A,,Haze,0,2012-11-08 23:35:00
5:55 PM,48.2,39.2,71,30.20,4.0,North,-9999.0,-,N/A,,Haze,0,2012-11-08 23:55:00
6:15 PM,48.2,39.2,71,30.20,4.0,North,-9999.0,-,N/A,,Haze,0,2012-11-09 00:15:00
6:55 PM,44.6,39.2,81,30.21,4.0,North,-9999.0,-,N/A,,Haze,0,2012-11-09 00:55:00
7:15 PM,44.6,39.2,81,30.20,3.0,North,-9999.0,-,N/A,,Partly Cloudy,0,2012-11-09 01:15:00
7:35 PM,41.0,39.2,93,30.21,3.0,North,-9999.0,-,N/A,,Clear,0,2012-11-09 01:35:00
7:55 PM,41.0,37.4,87,30.21,3.0,North,-9999.0,-,N/A,,Clear,0,2012-11-09 01:55:00
8:15 PM,41.0,39.2,93,30.21,3.0,North,-9999.0,-,N/A,,Clear,0,2012-11-09 02:15:00
8:35 PM,41.0,37.4,87,30.22,3.0,North,-9999.0,-,N/A,,Clear,0,2012-11-09 02:35:00
8:55 PM,39.2,37.4,93,30.21,3.0,North,-9999.0,-,N/A,,Clear,0,2012-11-09 02:55:00
9:15 PM,39.2,37.4,93,30.22,3.0,North,-9999.0,-,N/A,,Clear,0,2012-11-09 03:15:00
9:35 PM,39.2,37.4,93,30.22,3.0,North,-9999.0,-,N/A,,Clear,0,2012-11-09 03:35:00
9:55 PM,37.4,35.6,93,30.22,3.0,North,-9999.0,-,N/A,,Clear,0,2012-11-09 03:55:00
10:15 PM,37.4,37.4,100,30.22,2.5,North,-9999.0,-,N/A,,Clear,0,2012-11-09 04:15:00
10:55 PM,37.4,35.6,93,30.22,2.5,North,-9999.0,-,N/A,,Clear,0,2012-11-09 04:55:00
11:15 PM,37.4,35.6,93,30.22,2.5,North,-9999.0,-,N/A,,Clear,0,2012-11-09 05:15:00
11:55 PM,35.6,33.8,93,30.22,2.5,North,-9999.0,-,N/A,,Clear,0,2012-11-09 05:55:00